Terug naar catalogus

COSMOS 2499 DEB

LostPO
NORAD 55731·DEBRIS·🇷🇺 Russia

Gelanceerd May 23, 2014 vanaf Plesetsk Cosmodrome

Loading…

Volgende Passages (komende 24 uur)

TLE

VerouderdSource: Space-Track

Epoch: Feb 8, 2025, 15:49 UTC

1 55731U 14028AT  25039.65970172  .00037548  00000-0  60509-1 0  9990
2 55731  82.4318 192.3974 0249676 252.6266 104.7425 13.36689282 99084

Volg COSMOS 2499 DEB in realtime met AllMySat

Download on the App Store